Location: Marsån
(66.4167°N, 22.2833°E)
Time: 10:51:14
(UTC+00:00)

Cosmos 1066 Rocket - Pass Details

Date: 24 February 2024
Orbit: 798 x 893 km, 81.2° (Epoch: 15 April)

Event Time Altitude Azimuth Distance (km) Brightness Sun altitude
Rises 19:31:54 0° 338° (NNW) 3,376 8.2 -24.5°
Reaches altitude 10° 19:34:20 10° 337° (NNW) 2,427 7.4 -24.6°
Maximum altitude 19:39:48 76° 253° (WSW) 839 4.1 -25.1°
Enters shadow 19:40:50 58° 187° (S) 941 4.2 -25.2°
